Siga o Apolo11 no Facebook   Siga o Apolo11 no Twiiter
Ciência, Espaço e Tecnologia




Elementos Keplerianos formato Two Line

Para que um programa de rastreio possa saber a localização exata de qualquer satélite no espaço e assim poder rastreá-lo corretamente, é necessário que ele seja carregado com algumas informações.

Estas informações são chamadas de Elementos Orbitais ou Elementos Keplerianos e consistem em 2 linhas com dezenas de números. Esses números nada mais são que os parâmetros orbitais do satélite, tais como altitude, atitude, excentricidade da órbita, número de órbitas por dia, etc.

Com base nestas informações o programa é capaz de determinar com bastante exatidão a posição de qualquer satélite no espaço e nos informar em qual horário este estará dentro do alcance de nossa estação. Para que isso seja feito com precisão é necessário que os dados estejam sempre bem atualizadas.

Devido aos parâmetros orbitais serem descritos em 2 linhas, estes formato é também conhecido internacionalmente por 2line (leia-se Two Line”).

Para atualizar seu programa de rastreio basta copiar os dados disponibilizados e fornece-los ao programa. Nossos elementos orbitais são atualizados diariamente.

NOAATodos os satélites ambientais da série NOAA
30 DiasSatélites lançados nos últimos 30 dias
ISSSatélites e foguetes relacionados à Estação Espacial Internacional
HAMSatélites construídos por radiomadores
CUBESatélites tipo cubo, com 10 centímetros de lado
METEOSatélites voltados à previsão do tempo
EDUSatélites construídos e operados por universidades
VIS100 satélites mais brilhantes que podem ser vistos a olho nú



Satélites Educacionais
SAUDISAT 1C             
1 27607U 02058C   23342.91409585  .00001428  00000+0  21307-3 0  9992
2 27607  64.5557  88.9996 0048412 185.0946 174.9672 14.78039834128258
SAUDISAT 2              
1 28371U 04025F   23342.50269489  .00000375  00000+0  97540-4 0  9992
2 28371  98.4580 307.9367 0024099 247.0576 112.8077 14.55182355 31624
SAUDISAT 3              
1 31118U 07012B   23342.42490787  .00000395  00000+0  74197-4 0  9997
2 31118  98.0346 283.6847 0013586 282.0810  77.8873 14.69929787892267
PISAT                   
1 41784U 16059B   23342.09537220  .00000978  00000+0  18917-3 0  9999
2 41784  97.8529   7.8004 0029586 263.2563  96.5273 14.65218908384520
FLYING LAPTOP           
1 42831U 17042G   23343.16380654  .00001607  00000+0  15588-3 0  9993
2 42831  97.3811 170.3841 0013412   5.3621 354.7741 14.93903409348605
SALSAT                  
1 46495U 20068K   23342.61636521  .00004718  00000+0  29413-3 0  9999
2 46495  97.7920 292.9118 0013035 244.7376 115.2502 15.09982194175378


IMAGENS DE SATÉLITES !    Clique e conheça nosso Vídeo Workshop de sensoriamento remoto e imagens meteorológicas.
Apolo11.com - Todos os direitos reservados - 2001 - 2023
Política de Privacidade

"Ainda que eu fale a língua dos homens e dos anjos, se não tiver amor, nada serei" - 1 Coríntios 13,1